Find OneWeb SL0384

NORAD ID: 49310 Int'l Des: 2021-090 Owner: ONEWEBN Country: UK Constellation: oneweb operational
LEOCIRCULARPOLARONEWEB_TYPE

当前视图

正在加载3D地球...

关于 OneWeb SL0384

正在加载描述...

即将过境

Passes for default location (London). Set your location on the main map for personalized predictions.

高度历史

Loading altitude history...

两行轨道根数

1 49310U 21090AH 26150.86210519 .00000040 00000-0 65885-4 0 9995
2 49310 87.9183 277.9320 0002209 89.7055 270.4331 13.20811991227547
Epoch: May 30, 2026 • Age: 16 hours

当前状态

高度 1212.1 km
速度 7.25 km/s
星下点 -87.52°S, 143.19°E
发射日期 Oct 14, 2021
运行时间 4.6 years
类型 internet

技术详情

分类 Payload
质量 148.00 kg
干质量 140.00 kg
总质量 148.00 kg
长度 1.30 m
直径 1.00 m
跨度 5.00 m
形状 Trapezoid+2 pan
制造商 ONEWUS
平台类型 ARROW
阶段状态 In Orbit
所有者/国家 ONEWEBN/UK

Most Searched